Portada
METAR-TAF:

METAR-TAF

Aeropuertos :

Aeropuerto de Aupaluk

Aupaluk, Quebec, Canadá

latitud: 59-17-48N, longitud: 069-35-59W, altitud: 35 m

Observación

El informe se hizo hace 6 horas y 19 minutos, a las 21:00 UTC
Viento 19 kt del oeste con ráfagas de 28 kt
Temperatura 4°C
Humedad 65%
Presión 1024 hPa
Visibilidad: 24.1 km
Cielo nuboso a una altura de 4100 ft
Cielo nuboso a una altura de 24000 ft

METAR: CYLA 242100Z 28019G28KT 15SM BKN041 BKN240 04/M02 A3024 RMK SC5CI2 LAST STFD OBS/NEXT 251200UTC SLP246

Hora: 23:19 (03:19 UTC)


TAF: falta

Observaciones y pronósticos meteorológicos de más de 4000 aeropuertos (mensajes METAR y TAF).

Los puntos amarillos y rojos representan las estaciones disponibles.

Ponga el ratón en el punto deseado para ver el nombre de la estación.

Haga clic para ver las observaciones y los pronósticos meteorológicos.

Para cambiar el mapa : haga clic en los botones verdes con una cruz de color negro para hacer un zoom, en el botón verde con un guión para alejar o en las flechas verdes para mapas adyacentes.


METAR-TAF: